Weather History for Baton Rouge, LA

Change the Weather History Date:

Tuesday, October 19, 2010

  Actual Average Record
Temperature  
Mean Temperature 69 °F 68 °F  
Max Temperature 83 °F 80 °F 90 °F (1947)
Min Temperature 55 °F 57 °F 36 °F (1948)
Degree Days  
Heating Degree Days 0 2  
Month to date heating degree days 12 15  
Since 1 July heating degree days 12 17  
Cooling Degree Days 4 5  
Month to date cooling degree days 67 131  
Year to date cooling degree days 2871 2702  
Growing Degree Days 18 (Base 50)    
Moisture  
Dew Point 61 °F    
Average Humidity 70    
Maximum Humidity 100    
Minimum Humidity 40    
Precipitation  
Precipitation 0.08 in 0.17 in 1.35 in (1917)
Month to date precipitation 1.31 2.81  
Year to date precipitation 45.33 49.06  
Snow  
Snow 0.00 in - - ()
Month to date snowfall 0.0  
Since 1 July snowfall 0.0  
Since 1 September snowfall 0.0  
Snow Depth 0.00 in    
Sea Level Pressure  
Sea Level Pressure 29.98 in    
Wind  
Wind Speed 2 mph (SSW)    
Max Wind Speed 15 mph    
Max Gust Speed 18 mph    
Visibility 7 miles    
Events Fog , Rain    
T = Trace of Precipitation, MM = Missing Value Source: NWS Daily Summary

Daily Weather History Graph

Daily Weather History Graph

Search for Another Location

Airport:

Trip Planner

Search our weather history database for the weather conditions in past years. The results will help you decide how hot, cold, wet, or windy it might be!

Date:

Astronomy

Oct. 19, 2010 Rise Set
Actual Time 7:09 AM CDT 6:29 PM CDT
Civil Twilight 6:45 AM CDT 6:53 PM CDT
Nautical Twilight 6:17 AM CDT 7:21 PM CDT
Astronomical Twilight 5:49 AM CDT 7:49 PM CDT
Moon 4:29 PM CDT (10/19) 4:06 AM CDT (10/19)
Length of Visible Light 12h 08m
Length of Day
11h 19m
Waxing Gibbous, 90% of the Moon is Illuminated
Oct 19
Waxing Gibbous
Oct 22
Full
Oct 30
Last Quarter
Nov 5
New
Nov 13
First Quarter

Hourly Weather History & Observations

Time (CDT) Temp. Heat Index Dew Point Humidity Pressure Visibility Wind Dir Wind Speed Gust Speed Precip Events Conditions
12:53 AM 62.1 °F - 57.9 °F 86% 29.98 in 10.0 mi Calm Calm - N/A   Clear
1:53 AM 60.1 °F - 57.9 °F 93% 29.97 in 10.0 mi Calm Calm - N/A   Clear
2:53 AM 57.9 °F - 57.9 °F 100% 29.96 in 8.0 mi Calm Calm - N/A   Clear
3:53 AM 55.9 °F - 55.9 °F 100% 29.97 in 8.0 mi Calm Calm - N/A   Clear
4:53 AM 55.9 °F - 55.9 °F 100% 29.98 in 7.0 mi Calm Calm - N/A   Clear
5:53 AM 55.9 °F - 55.0 °F 97% 29.98 in 9.0 mi Calm Calm - N/A   Clear
6:53 AM 55.9 °F - 55.9 °F 100% 29.99 in 6.0 mi Calm Calm - N/A   Clear
7:53 AM 57.0 °F - 55.9 °F 96% 30.00 in 6.0 mi Calm Calm - N/A   Clear
8:53 AM 64.9 °F - 61.0 °F 87% 30.02 in 8.0 mi Calm Calm - N/A   Clear
9:53 AM 73.9 °F - 64.0 °F 71% 30.03 in 10.0 mi West 5.8 mph - N/A   Clear
10:53 AM 77.0 °F - 64.0 °F 64% 30.02 in 10.0 mi WSW 3.5 mph - N/A   Clear
11:53 AM 80.1 °F 81.2 °F 62.1 °F 54% 30.02 in 10.0 mi Calm Calm - N/A   Clear
12:53 PM 80.1 °F 80.7 °F 59.0 °F 48% 29.99 in 10.0 mi NNE 3.5 mph - N/A   Partly Cloudy
2:53 PM 82.0 °F 81.7 °F 57.0 °F 42% 29.93 in 10.0 mi Calm Calm - N/A   Partly Cloudy
3:53 PM 82.0 °F 81.4 °F 55.0 °F 39% 29.91 in 10.0 mi South 5.8 mph - N/A   Clear
4:53 PM 81.0 °F 81.1 °F 57.9 °F 45% 29.92 in 10.0 mi WSW 6.9 mph - N/A   Partly Cloudy
5:53 PM 78.1 °F - 59.0 °F 52% 29.93 in 10.0 mi WSW 6.9 mph - N/A   Partly Cloudy
6:53 PM 75.0 °F - 60.1 °F 60% 29.93 in 10.0 mi SSW 4.6 mph - N/A   Overcast
7:53 PM 71.1 °F - 62.1 °F 73% 29.95 in 10.0 mi ESE 3.5 mph - N/A   Overcast
8:53 PM 68.0 °F - 66.9 °F 96% 30.00 in 7.0 mi SE 4.6 mph - 0.07 in Rain Rain
9:53 PM 68.0 °F - 68.0 °F 100% 30.00 in 8.0 mi Calm Calm - 0.01 in   Mostly Cloudy
10:53 PM 66.0 °F - 66.0 °F 100% 30.00 in 7.0 mi Calm Calm - 0.00 in   Mostly Cloudy
11:32 PM 64.4 °F - 64.4 °F 100% 29.99 in 1.0 mi Calm Calm - N/A   Mist
11:37 PM 64.4 °F - 64.4 °F 100% 29.99 in 0.2 mi Calm Calm - N/A Fog Fog
11:49 PM 64.4 °F - 64.4 °F 100% 29.99 in 0.8 mi Calm Calm - N/A   Mist
11:51 PM 64.4 °F - 64.4 °F 100% 29.99 in 1.2 mi Calm Calm - N/A   Partly Cloudy
11:53 PM 64.0 °F - 64.0 °F 100% 29.99 in 1.2 mi Calm Calm - N/A   Partly Cloudy
11:57 PM 64.4 °F - 64.4 °F 100% 29.99 in 0.8 mi Calm Calm - N/A   Mist